sat.trackr.live / text

‹ back to catalog

STARLINK-2487

NORAD 48144 · 2021-027BE

PAYLOAD ACTIVE UNKNOWN

§ Identity

Operator
Country
US
Launch date
2021-04-07
Launch site
AFETR
Launch vehicle
Mass (kg)
RCS (m²)

Purposes: comms

External: N2YO · Heavens-Above · Gunter

§ Orbital elements

Epoch: 2026-09-20T05:02:01.656096Z

Period
94.01 min
Inclination
53.1599°
Eccentricity
0.0001171
Mean motion
15.31701751 rev/d
Perigee alt
469.9 km
Apogee alt
471.5 km
Semi-major
6,848.9 km
B*
2.1085e-5
RAAN
327.2360°
Arg perigee
98.4096°
Mean anomaly
261.7038°
Rev number
30,248

§ Raw data

STARLINK-24871 48144U 21027BE  26263.20974139  .00000289  00000+0  21085-4 0  99952 48144  53.1599 327.2360 0001171  98.4096 261.7038 15.31701751302489

JSON: /api/v1/satellites/48144 · /tle

For live sub-satellite position, see the globe view (requires WebGL).

§ Visibility from observer

Set your observer location to see the next 7 days of passes ≥ 10°. The values pass through the URL so the page stays shareable.

No JS? Fill the form by hand. The geolocation button needs JavaScript.